Regional Weather Roundup
Issued by NWS

Home | Current Version | Previous Version | Graphics & Text | Print | Product List | Glossary Off
Versions: 1 2 3 4 5 6 7 8 9 10 11 12 13 14 15 16 17 18 19 20 21 22 23 24 25 26 27 28 29 30 31 32 33 34 35 36 37 38 39 40 41 42 43 44 45 46 47 48 49 50

000
ASUS43 KTOP 290159
RWRKS

WEATHER ROUNDUP FOR KANSAS
NATIONAL WEATHER SERVICE GOODLAND KS
800 PM CST FRI NOV 28 2014

NOTE:  "FAIR" INDICATES FEW OR NO CLOUDS BELOW 12,000 FEET WITH NO
SIGNIFICANT WEATHER AND/OR OBSTRUCTIONS TO VISIBILITY.

KSZ001>006-013>018-027>032-041>047-290300-
NORTHWEST KANSAS

CITY           SKY/WX    TMP DP  RH WIND       PRES   REMARKS
GOODLAND       CLOUDY    47  16  29 S7        29.76F
HAYS           PTCLDY    48  21  34 S8        29.74S
HILL CITY      CLOUDY    49  20  31 W5        29.71F
RUSSELL        PTCLDY    50  30  46 S12       29.73S
$$

KSZ061>065-074>080-084>089-290300-
SOUTHWEST KANSAS

CITY           SKY/WX    TMP DP  RH WIND       PRES   REMARKS
DODGE CITY     MOCLDY    55  27  34 S13       29.76F
ELKHART          N/A     61  12  14 SW7         N/A
GARDEN CITY    CLOUDY    50  24  36 S7        29.76F
GREAT BEND     CLEAR     46  28  49 SW9       29.76F
LIBERAL        MOCLDY    54  21  28 SE3       29.78S
$$

KSZ066>073-081>083-090>101-290300-
SOUTHEAST KANSAS

CITY           SKY/WX    TMP DP  RH WIND       PRES   REMARKS
CHANUTE        CLOUDY    54  40  59 S16       29.83F
COFFEYVILLE    CLOUDY    55  40  56 S12       29.87S
HUTCHINSON     CLEAR     46  33  60 S8        29.77F
MEDICINE LODGE   N/A     51  37  58 S9        29.78F
NEWTON         PTCLDY    52  34  50 S14       29.80F
PARSONS        CLOUDY    53  40  61 S6        29.87S
WICHITA INTL   PTCLDY    49  37  63 S12       29.79F
WICHITA JABRA  PTCLDY    54  39  57 S17       29.80S
WINFIELD       CLEAR     53  40  61 S10       29.83F
$$

KSZ007>012-019>026-033>040-048>060-102>105-290300-
NORTHEAST KANSAS

CITY           SKY/WX    TMP DP  RH WIND       PRES   REMARKS
CONCORDIA      MOCLDY    54  35  48 S20       29.69F
EMPORIA        CLOUDY    50  36  58 S9        29.79F
LAWRENCE       CLOUDY    53  35  50 S7        29.78S
MANHATTAN      CLOUDY    53  36  52 SW12      29.75S
OLATHE IND     CLOUDY    51  36  56 S14       29.79F
OLATHE EXE     MOCLDY    54  36  50 S16G22    29.78F
SALINA         PTCLDY    50  35  56 S7        29.75F
TOPEKA BILLARD CLOUDY    55  35  47 S7        29.77F
TOPEKA FORBES  CLOUDY    54  35  48 S13       29.76S
$$


USA.gov is the U.S. government's official web portal to all federal, state and local government web resources and services.